Find Starlink 30924

NORAD ID: 58412 Int'l Des: 2023-180 Owner: SPXS Country: US Constellation: starlink operational
LEOCIRCULAR

实时位置

正在加载3D地球...

关于 Starlink 30924

正在加载描述...

即将过境

Passes for default location (London). Set your location on the main map for personalized predictions.

高度历史

Loading altitude history...

两行轨道根数

1 58412U 23180L 26130.11231647 .00014576 00000-0 36839-3 0 9996
2 58412 43.0005 273.7997 0008075 325.2716 34.7612 15.39591809138807
Epoch: May 10, 2026 • Age: 12 hours

当前状态

高度 453.6 km
速度 7.64 km/s
星下点 -15.69°S, 22.9°E
发射日期 Nov 22, 2023
运行时间 2.4 years
类型 internet

技术详情

分类 Payload
质量 730.00 kg
干质量 700.00 kg
总质量 730.00 kg
长度 0.30 m
直径 4.10 m
跨度 29.00 m
形状 Box + pan
制造商 SPXS
平台类型 Starlink V2M
阶段状态 In Orbit
所有者/国家 SPXS/US

Most Searched